Preston, Minnesota, United States (55965)
Lat: 43.67N, Lon: 92.08W
Wx Zone: MNZ095
Local Info
Past Weather Observations for Saturday, July 26, 2014

NOTE: This archive is for the closest National Weather Service station to Preston. Information may differ from the station used for current weather conditions.

Click here for Long-term Archive

Time Weather Temperature Dewpoint Humidity Pressure Winds Precip Visibility
23:51
Clear
68°F / 20°C 68°F / 20°C 100% 29.86 in
(1011 mb)
W 8.1 mph
(W 13 kph)
- 10SM
23:31
Clear
70°F / 21°C 68°F / 20°C 94% 29.86 in
(1011 mb)
W 8.1 mph
(W 13 kph)
- 10SM
23:10
Clear
70°F / 21°C 68°F / 20°C 94% 29.86 in
(1011 mb)
W 10.4 mph
(W 17 kph)
- 10SM
22:51
Clear
Thunder Storms
70°F / 21°C 68°F / 20°C 94% 29.86 in
(1011 mb)
SSW 9.2 mph
(SSW 15 kph)
- 10SM
22:31
Clear
Thunder Storms
70°F / 21°C 68°F / 20°C 94% 29.89 in
(1012 mb)
SSW 10.4 mph
(SSW 17 kph)
- 10SM
22:11
Clear
Thunder Storms
70°F / 21°C 68°F / 20°C 94% 29.89 in
(1012 mb)
SSW 9.2 mph
(SSW 15 kph)
- 10SM
21:51
Clear
70°F / 21°C 68°F / 20°C 94% 29.89 in
(1012 mb)
SSW 9.2 mph
(SSW 15 kph)
- 10SM
21:31
Clear
70°F / 21°C 68°F / 20°C 94% 29.89 in
(1012 mb)
SW 8.1 mph
(SW 13 kph)
- 10SM
21:10
Partly Cloudy
70°F / 21°C 68°F / 20°C 94% 29.89 in
(1012 mb)
SW 8.1 mph
(SW 13 kph)
- 10SM
20:51
Partly Cloudy
72°F / 22°C 68°F / 20°C 88% 29.89 in
(1012 mb)
SSW 8.1 mph
(SSW 13 kph)
- 10SM
20:31
Clear
72°F / 22°C 68°F / 20°C 88% 29.89 in
(1012 mb)
SSW 6.9 mph
(SSW 11 kph)
- 10SM
20:11
Clear
72°F / 22°C 68°F / 20°C 88% 29.89 in
(1012 mb)
SW 5.8 mph
(SW 9 kph)
- 10SM
19:50
Clear
72°F / 22°C 68°F / 20°C 88% 29.86 in
(1011 mb)
SW 5.8 mph
(SW 9 kph)
- 10SM
19:31
Clear
72°F / 22°C 70°F / 21°C 94% 29.86 in
(1011 mb)
SW 5.8 mph
(SW 9 kph)
- 10SM
19:11
Clear
75°F / 24°C 70°F / 21°C 83% 29.86 in
(1011 mb)
SSW 5.8 mph
(SSW 9 kph)
- 10SM
18:51
Clear
75°F / 24°C 70°F / 21°C 83% 29.86 in
(1011 mb)
SSW 6.9 mph
(SSW 11 kph)
- 10SM
18:30
Clear
77°F / 25°C 70°F / 21°C 79% 29.86 in
(1011 mb)
SSW 6.9 mph
(SSW 11 kph)
- 10SM
18:11
Clear
77°F / 25°C 70°F / 21°C 79% 29.86 in
(1011 mb)
SSW 6.9 mph
(SSW 11 kph)
- 10SM
17:50
Clear
79°F / 26°C 70°F / 21°C 74% 29.86 in
(1011 mb)
W 8.1 mph
(W 13 kph)
- 10SM
17:30
Clear
79°F / 26°C 70°F / 21°C 74% 29.86 in
(1011 mb)
W 8.1 mph
(W 13 kph)
- 10SM
17:11
Clear
79°F / 26°C 68°F / 20°C 70% 29.86 in
(1011 mb)
W 9.2 mph
(W 15 kph)
- 10SM
16:51
Partly Cloudy
79°F / 26°C 72°F / 22°C 79% 29.86 in
(1011 mb)
SSW 9.2 mph
(SSW 15 kph)
- 10SM
16:31
Mostly Cloudy
81°F / 27°C 72°F / 22°C 74% 29.86 in
(1011 mb)
W 9.2 mph
(W 15 kph)
- 10SM
16:11
Partly Cloudy
79°F / 26°C 73°F / 23°C 84% 29.86 in
(1011 mb)
SSW 6.9 mph
(SSW 11 kph)
- 10SM
15:51
Clear
81°F / 27°C 72°F / 22°C 74% 29.86 in
(1011 mb)
SSW 5.8 mph
(SSW 9 kph)
- 10SM
15:31
Clear
79°F / 26°C 72°F / 22°C 79% 29.86 in
(1011 mb)
SSW 3.5 mph
(SSW 6 kph)
- 10SM
15:11
Clear
79°F / 26°C 73°F / 23°C 84% 29.86 in
(1011 mb)
SSW 4.6 mph
(SSW 7 kph)
- 10SM
14:51
Clear
79°F / 26°C 73°F / 23°C 84% 29.86 in
(1011 mb)
S 11.5 mph
(S 19 kph)
- 10SM
14:31
Clear
77°F / 25°C 73°F / 23°C 89% 29.83 in
(1010 mb)
S 8.1 mph
(S 13 kph)
- 10SM
14:11
Clear
77°F / 25°C 72°F / 22°C 83% 29.86 in
(1011 mb)
S 9.2 mph
(S 15 kph)
- 10SM
13:51
Clear
75°F / 24°C 72°F / 22°C 89% 29.89 in
(1012 mb)
NW 3.5 mph
(NW 6 kph)
- 10SM
13:31
Clear
75°F / 24°C 73°F / 23°C 94% 29.89 in
(1012 mb)
NNW 5.8 mph
(NNW 9 kph)
- 7SM
13:11
Partly Cloudy
75°F / 24°C 73°F / 23°C 94% 29.92 in
(1013 mb)
NW 9.2 mph
(NW 15 kph)
- 7SM
12:51
Mostly Cloudy
73°F / 23°C 73°F / 23°C 100% 29.92 in
(1013 mb)
WNW 11.5 mph
(WNW 19 kph)
- 7SM
12:31
Partly Cloudy
73°F / 23°C 73°F / 23°C 100% 29.92 in
(1013 mb)
SSW 6.9 mph
(SSW 11 kph)
- 7SM
12:11
Partly Cloudy
73°F / 23°C 73°F / 23°C 100% 29.89 in
(1012 mb)
NW 10.4 mph
(NW 17 kph)
- 7SM
11:51
Overcast
Light Rain
72°F / 22°C 72°F / 22°C 100% 29.89 in
(1012 mb)
WNW 6.9 mph
(WNW 11 kph)
0.01 in
(0.25 mm)
5SM
11:31
Overcast
Light Rain
72°F / 22°C 72°F / 22°C 100% 29.89 in
(1012 mb)
N 6.9 mph
(N 11 kph)
- 5SM
11:11
Overcast
Fog And Mist
72°F / 22°C 72°F / 22°C 100% 29.86 in
(1011 mb)
Calm - 5SM
10:51
Overcast
Fog And Mist
72°F / 22°C 72°F / 22°C 100% 29.86 in
(1011 mb)
N 4.6 mph
(N 7 kph)
- 5SM
10:31
Overcast
Fog And Mist
72°F / 22°C 72°F / 22°C 100% 29.89 in
(1012 mb)
NW 6.9 mph
(NW 11 kph)
- 5SM
10:10
Overcast
Fog And Mist
70°F / 21°C 72°F / 22°C N/A 29.86 in
(1011 mb)
Calm - 4SM
09:51
Overcast
Fog And Mist
70°F / 21°C 70°F / 21°C 100% 29.86 in
(1011 mb)
Calm - 4SM
09:31
Overcast
Fog And Mist
70°F / 21°C 70°F / 21°C 100% 29.86 in
(1011 mb)
Calm - 3SM
09:11
Overcast
Fog And Mist
68°F / 20°C 68°F / 20°C 100% 29.86 in
(1011 mb)
SSE 3.5 mph
(SSE 6 kph)
- 2SM
08:51
Overcast
Fog And Mist
68°F / 20°C 68°F / 20°C 100% 29.83 in
(1010 mb)
S 9.2 mph
(S 15 kph)
- 2SM
08:31
Overcast
Fog And Mist
68°F / 20°C 68°F / 20°C 100% 29.86 in
(1011 mb)
SSE 5.8 mph
(SSE 9 kph)
- 1 1/2SM
08:11
Overcast
Fog And Mist
68°F / 20°C 68°F / 20°C 100% 29.89 in
(1012 mb)
Calm - 1 1/4SM
07:51
Overcast
Fog And Mist
68°F / 20°C 68°F / 20°C 100% 29.89 in
(1012 mb)
SSW 5.8 mph
(SSW 9 kph)
- 3/4SM
07:31
Overcast
Fog
68°F / 20°C 68°F / 20°C 100% 29.92 in
(1013 mb)
SSW 4.6 mph
(SSW 7 kph)
- 1/2SM
07:11
Overcast
Fog
66°F / 19°C 66°F / 19°C 100% 29.89 in
(1012 mb)
SSW 5.8 mph
(SSW 9 kph)
- 1/4SM
06:50
Overcast
Fog
66°F / 19°C 66°F / 19°C 100% 29.86 in
(1011 mb)
Calm - 1/4SM
06:31
Overcast
Fog
66°F / 19°C 66°F / 19°C 100% 29.86 in
(1011 mb)
S 5.8 mph
(S 9 kph)
- 1/4SM
06:11
Overcast
Fog
66°F / 19°C 66°F / 19°C 100% 29.89 in
(1012 mb)
SW 5.8 mph
(SW 9 kph)
- 1/2SM
05:50
Overcast
Fog
66°F / 19°C 66°F / 19°C 100% 29.89 in
(1012 mb)
SW 3.5 mph
(SW 6 kph)
- 1/2SM
05:31
Overcast
Fog
66°F / 19°C 66°F / 19°C 100% 29.86 in
(1011 mb)
SW 4.6 mph
(SW 7 kph)
- 1/2SM
05:11
Overcast
Fog And Mist
66°F / 19°C 66°F / 19°C 100% 29.86 in
(1011 mb)
SSE 5.8 mph
(SSE 9 kph)
- 1 1/4SM
04:51
Overcast
Fog And Mist
66°F / 19°C 66°F / 19°C 100% 29.86 in
(1011 mb)
SW 3.5 mph
(SW 6 kph)
- 1 3/4SM
04:31
Overcast
Fog And Mist
66°F / 19°C 66°F / 19°C 100% 29.86 in
(1011 mb)
SW 5.8 mph
(SW 9 kph)
- 3SM
04:11
Overcast
Fog And Mist
66°F / 19°C 66°F / 19°C 100% 29.86 in
(1011 mb)
S 5.8 mph
(S 9 kph)
- 3SM
03:51
Overcast
Fog And Mist
66°F / 19°C 66°F / 19°C 100% 29.86 in
(1011 mb)
SW 3.5 mph
(SW 6 kph)
- 3SM
03:31
Overcast
Fog And Mist
66°F / 19°C 66°F / 19°C 100% 29.86 in
(1011 mb)
SW 5.8 mph
(SW 9 kph)
- 5SM
03:10
Overcast
Fog And Mist
66°F / 19°C 66°F / 19°C 100% 29.86 in
(1011 mb)
SW 5.8 mph
(SW 9 kph)
- 5SM
02:51
Overcast
Fog And Mist
66°F / 19°C 66°F / 19°C 100% 29.86 in
(1011 mb)
S 5.8 mph
(S 9 kph)
- 5SM
02:30
Overcast
Fog And Mist
66°F / 19°C 66°F / 19°C 100% 29.83 in
(1010 mb)
S 6.9 mph
(S 11 kph)
- 5SM
02:11
Overcast
Fog And Mist
66°F / 19°C 66°F / 19°C 100% 29.86 in
(1011 mb)
S 6.9 mph
(S 11 kph)
- 5SM
01:51
Overcast
Fog And Mist
66°F / 19°C 66°F / 19°C 100% 29.86 in
(1011 mb)
S 6.9 mph
(S 11 kph)
- 5SM
01:30
Overcast
66°F / 19°C 66°F / 19°C 100% 29.86 in
(1011 mb)
S 6.9 mph
(S 11 kph)
- 7SM
01:11
Overcast
66°F / 19°C 66°F / 19°C 100% 29.86 in
(1011 mb)
S 8.1 mph
(S 13 kph)
- 7SM
00:51
Overcast
Fog And Mist
66°F / 19°C 66°F / 19°C 100% 29.89 in
(1012 mb)
S 10.4 mph
(S 17 kph)
- 5SM
00:31
Overcast
Fog And Mist
66°F / 19°C 66°F / 19°C 100% 29.86 in
(1011 mb)
S 5.8 mph
(S 9 kph)
- 5SM
00:11
Overcast
Fog And Mist
66°F / 19°C 68°F / 20°C N/A 29.89 in
(1012 mb)
SSE 9.2 mph
(SSE 15 kph)
- 4SM
Time Weather Temperature Dewpoint Humidity Pressure Winds Precip Visibility


Weather for websites

WeatherForYou.com, LLC is not responsible for any damages or problems caused by this service. Current weather conditions are obtained from the closest station including government and personal stations which may have varying degrees of accuracy. Weather forecasts are derived from the NOAA NDFD. Like all things, this site belongs to Jesus Christ... He just trusts me to maintain it. If you have any questions or comments email webmaster@weatherforyou.com

Copyright © 2014, WeatherForYou.com LLC. All rights reserved.